| time (UTC) | temp F | wind direction | speed MPH | gust MPH | rain 1hr in | rain 24hr in | rain mn in | humidity % | barometer mb |
| 20260505003537 | 66 | 338 | 9.0 | 16.0 | 0.00 | 0.00 | 0.00 | 14 | 1009.1 |
| 20260505002517 | 67 | 23 | 6.0 | 14.0 | 0.00 | 0.00 | 0.00 | 16 | 1009.2 |
| 20260505001536 | 67 | 23 | 8.0 | 17.0 | 0.00 | 0.00 | 0.00 | 16 | 1009.2 |
| 20260505000517 | 67 | 338 | 7.0 | 14.0 | 0.00 | 0.00 | 0.00 | 17 | 1009.1 |
| 20260504235517 | 68 | 0 | 7.0 | 15.0 | 0.00 | 0.00 | 0.00 | 16 | 1009.5 |
| 20260504234517 | 68 | 338 | 10.0 | 17.0 | 0.00 | 0.00 | 0.00 | 16 | 1009.5 |
| 20260504233637 | 67 | 23 | 6.0 | 12.0 | 0.00 | 0.00 | 0.00 | 18 | 1009.4 |
| 20260504232517 | 67 | 0 | 7.0 | 18.0 | 0.00 | 0.00 | 0.00 | 18 | 1009.4 |
| 20260504231516 | 70 | 338 | 10.0 | 16.0 | 0.00 | 0.00 | 0.00 | 15 | 1010.0 |
| 20260504230537 | 69 | 0 | 6.0 | 17.0 | 0.00 | 0.00 | 0.00 | 17 | 1009.6 |
| 20260504225617 | 69 | 315 | 5.0 | 15.0 | 0.00 | 0.00 | 0.00 | 18 | 1009.5 |
| 20260504224517 | 67 | 0 | 9.0 | 16.0 | 0.00 | 0.00 | 0.00 | 18 | 1009.5 |
| 20260504223516 | 69 | 315 | 8.0 | 14.0 | 0.00 | 0.00 | 0.00 | 15 | 1009.6 |
| 20260504222556 | 69 | 315 | 8.0 | 13.0 | 0.00 | 0.00 | 0.00 | 20 | 1010.1 |
| 20260504221516 | 69 | 293 | 9.0 | 15.0 | 0.00 | 0.00 | 0.00 | 17 | 1010.0 |
| 20260504220536 | 68 | 270 | 4.0 | 8.0 | 0.00 | 0.00 | 0.00 | 21 | 1010.2 |
| 20260504215636 | 67 | 0 | 9.0 | 18.0 | 0.00 | 0.00 | 0.00 | 17 | 1009.9 |
| 20260504213516 | 66 | 315 | 4.0 | 10.0 | 0.00 | 0.00 | 0.00 | 19 | 1010.1 |
| 20260504212617 | 67 | 0 | 5.0 | 11.0 | 0.00 | 0.00 | 0.00 | 19 | 1010.5 |
| 20260504211538 | 66 | 338 | 5.0 | 9.0 | 0.00 | 0.00 | 0.00 | 20 | 1010.6 |
| 20260504210518 | 67 | 338 | 3.0 | 7.0 | 0.00 | 0.00 | 0.00 | 18 | 1010.6 |
| 20260504205518 | 68 | 45 | 4.0 | 9.0 | 0.00 | 0.00 | 0.00 | 18 | 1011.0 |
| 20260504204518 | 70 | 248 | 6.0 | 20.0 | 0.00 | 0.00 | 0.00 | 18 | 1011.4 |
| 20260504203538 | 70 | 270 | 6.0 | 15.0 | 0.00 | 0.00 | 0.00 | 19 | 1011.4 |
| 20260504202558 | 69 | 293 | 7.0 | 13.0 | 0.00 | 0.00 | 0.00 | 20 | 1011.5 |
| 20260504201538 | 67 | 293 | 5.0 | 9.0 | 0.00 | 0.00 | 0.00 | 20 | 1011.2 |
| 20260504200518 | 66 | 315 | 3.0 | 6.0 | 0.00 | 0.00 | 0.00 | 20 | 1011.2 |
| 20260504195536 | 65 | 338 | 7.0 | 12.0 | 0.00 | 0.00 | 0.00 | 23 | 1011.5 |
| 20260504194518 | 66 | 68 | 8.0 | 12.0 | 0.00 | 0.00 | 0.00 | 21 | 1011.8 |
| 20260504193518 | 66 | 0 | 6.0 | 13.0 | 0.00 | 0.00 | 0.00 | 19 | 1011.8 |
| 20260504192537 | 66 | 293 | 8.0 | 17.0 | 0.00 | 0.00 | 0.00 | 24 | 1012.0 |
| 20260504191518 | 66 | 45 | 5.0 | 10.0 | 0.00 | 0.00 | 0.00 | 22 | 1012.4 |
| 20260504190536 | 67 | 293 | 8.0 | 13.0 | 0.00 | 0.00 | 0.00 | 20 | 1012.8 |
| 20260504185536 | 67 | 315 | 5.0 | 13.0 | 0.00 | 0.00 | 0.00 | 19 | 1012.8 |
| 20260504184536 | 67 | 68 | 4.0 | 9.0 | 0.00 | 0.00 | 0.00 | 20 | 1012.9 |
| 20260504183538 | 67 | 338 | 6.0 | 11.0 | 0.00 | 0.00 | 0.00 | 21 | 1012.8 |
| 20260504182518 | 68 | 293 | 7.0 | 14.0 | 0.00 | 0.00 | 0.00 | 18 | 1013.0 |
| 20260504181518 | 68 | 180 | 3.0 | 11.0 | 0.00 | 0.00 | 0.00 | 20 | 1013.0 |
| 20260504180518 | 68 | 293 | 3.0 | 10.0 | 0.00 | 0.00 | 0.00 | 18 | 1013.1 |
| 20260504175518 | 67 | 315 | 4.0 | 10.0 | 0.00 | 0.00 | 0.00 | 17 | 1013.1 |
| 20260504174656 | 67 | 45 | 4.0 | 9.0 | 0.00 | 0.00 | 0.00 | 21 | 1013.3 |
| 20260504173536 | 66 | 0 | 2.0 | 5.0 | 0.00 | 0.00 | 0.00 | 26 | 1013.0 |
| 20260504172516 | 64 | 0 | 2.0 | 5.0 | 0.00 | 0.00 | 0.00 | 22 | 1012.7 |
| 20260504171538 | 63 | 338 | 5.0 | 10.0 | 0.00 | 0.00 | 0.00 | 23 | 1012.7 |
| 20260504170518 | 63 | 338 | 5.0 | 10.0 | 0.00 | 0.00 | 0.00 | 26 | 1012.8 |
| 20260504150517 | 56 | 0 | 5.0 | 11.0 | 0.00 | 0.00 | 0.00 | 33 | 1015.2 |
| 20260504140538 | 45 | 68 | 3.0 | 4.0 | 0.00 | 0.00 | 0.00 | 56 | 1014.3 |
| 20260504130518 | 36 | 68 | 2.0 | 5.0 | 0.00 | 0.00 | 0.00 | 65 | 1012.9 |
| 20260504110658 | 36 | 0.0 | 0.0 | 0.00 | 0.00 | 0.00 | 61 | 1013.0 | |
| 20260504100517 | 38 | 338 | 1.0 | 5.0 | 0.00 | 0.00 | 0.00 | 60 | 1014.1 |
| 20260504081617 | 42 | 113 | 3.0 | 4.0 | 0.00 | 0.00 | 0.00 | 54 | 1014.7 |
| 20260504080617 | 42 | 0.0 | 0.0 | 0.00 | 0.00 | 0.00 | 53 | 1014.8 | |
| 20260504050637 | 46 | 0.0 | 0.0 | 0.00 | 0.00 | 0.00 | 47 | 1015.2 | |
| 20260504045517 | 47 | 0.0 | 0.0 | 0.00 | 0.00 | 0.00 | 45 | 1015.3 | |
| 20260504044557 | 48 | 0.0 | 0.0 | 0.00 | 0.00 | 0.00 | 43 | 1015.3 | |
| 20260504043617 | 49 | 0.0 | 0.0 | 0.00 | 0.00 | 0.00 | 42 | 1015.8 | |
| 20260504042557 | 50 | 0.0 | 0.0 | 0.00 | 0.00 | 0.00 | 41 | 1015.7 | |
| 20260504041516 | 51 | 0.0 | 1.0 | 0.00 | 0.00 | 0.00 | 37 | 1015.7 | |
| 20260504040537 | 53 | 0.0 | 0.0 | 0.00 | 0.00 | 0.00 | 38 | 1016.1 | |
| 20260504035517 | 54 | 45 | 1.0 | 2.0 | 0.00 | 0.00 | 0.00 | 36 | 1016.1 |
| 20260504034617 | 55 | 0 | 4.0 | 6.0 | 0.00 | 0.00 | 0.00 | 33 | 1015.6 |
| 20260504033617 | 56 | 0 | 1.0 | 2.0 | 0.00 | 0.00 | 0.00 | 30 | 1015.6 |
| 20260504032537 | 58 | 0.0 | 2.0 | 0.00 | 0.00 | 0.00 | 30 | 1015.9 | |
| 20260504031516 | 59 | 0.0 | 1.0 | 0.00 | 0.00 | 0.00 | 29 | 1015.5 | |
| 20260504030537 | 61 | 0 | 2.0 | 3.0 | 0.00 | 0.00 | 0.00 | 21 | 1015.3 |
| 20260504025557 | 62 | 0 | 2.0 | 3.0 | 0.00 | 0.00 | 0.00 | 19 | 1015.2 |
| 20260504024536 | 63 | 0 | 1.0 | 3.0 | 0.00 | 0.00 | 0.00 | 17 | 1014.9 |
| 20260504023516 | 64 | 0 | 2.0 | 4.0 | 0.00 | 0.00 | 0.00 | 17 | 1014.9 |
| 20260504022537 | 65 | 0 | 2.0 | 4.0 | 0.00 | 0.00 | 0.00 | 17 | 1014.5 |
| 20260504021537 | 65 | 0 | 3.0 | 4.0 | 0.00 | 0.00 | 0.00 | 15 | 1014.4 |
| 20260504020536 | 66 | 0 | 2.0 | 5.0 | 0.00 | 0.00 | 0.00 | 15 | 1014.0 |
| 20260504015636 | 67 | 338 | 5.0 | 9.0 | 0.00 | 0.00 | 0.00 | 15 | 1014.2 |
| 20260504014518 | 67 | 270 | 3.0 | 4.0 | 0.00 | 0.00 | 0.00 | 15 | 1014.1 |
| 20260504013518 | 68 | 248 | 3.0 | 6.0 | 0.00 | 0.00 | 0.00 | 13 | 1013.7 |
| 20260504012538 | 69 | 248 | 6.0 | 8.0 | 0.00 | 0.00 | 0.00 | 13 | 1013.8 |
| 20260504011536 | 69 | 248 | 5.0 | 8.0 | 0.00 | 0.00 | 0.00 | 13 | 1013.2 |
| 20260504010516 | 69 | 248 | 6.0 | 10.0 | 0.00 | 0.00 | 0.00 | 14 | 1013.3 |
| 20260504005616 | 68 | 180 | 3.0 | 7.0 | 0.00 | 0.00 | 0.00 | 15 | 1013.0 |
| 20260504004518 | 66 | 225 | 3.0 | 5.0 | 0.00 | 0.00 | 0.00 | 16 | 1012.7 |